Zurück zum Katalog

STARLINK-31747

AktivKommunikationVLEO
NORAD 59564·PAYLOAD·🇺🇸 United States

Gestartet Apr 23, 2024 von Cape Canaveral Space Force Station

Loading…

Nächste Überflüge (nächste 24 Stunden)

TLE

AktuellSource: CelesTrak SupGP

Epoche: Sep 14, 2026, 20:40 UTC

1 59564C 24076A   26257.86159722  .00043693  00000+0  15829-2 0  2578
2 59564  43.0041  10.0756 0001617 283.0879 177.1512 15.27549106    19

Verfolge STARLINK-31747 in Echtzeit mit AllMySat

Download on the App Store